Regional Weather Roundup
Issued by NWS

Home | Current Version | Previous Version | Graphics & Text | Print | Product List | Glossary On
Versions: 1 2 3 4 5 6 7 8 9 10 11 12 13 14 15 16 17 18 19 20 21 22 23 24 25 26 27 28 29 30 31 32 33 34 35 36 37 38 39 40 41 42 43 44 45 46 47 48 49 50
131
ASUS45 KBOU 230207
RWRCO

WEATHER ROUNDUP FOR COLORADO
NATIONAL WEATHER SERVICE DENVER/BOULDER CO
800 PM MDT SUN OCT 22 2017

NOTE: "FAIR" INDICATES FEW OR NO CLOUDS BELOW 12000 FEET WITH NO
SIGNIFICANT WEATHER AND/OR OBSTRUCTIONS TO VISIBILITY.

COZ001>005-013-030-031-230300-
...NORTHWEST COLORADO...

CITY           SKY/WX    TMP DP  RH WIND       PRES   REMARKS
CRAIG          FAIR      50  24  36 W10       30.35R
HAYDEN         FAIR      49  27  42 NE3       30.38R
MEEKER         FAIR      52  25  35 W3        30.39R
RABBIT EARS PA MOCLDY    32  28  86 W12G22    30.47R WCI  23
STEAMBOAT SPGS CLOUDY    46  31  54 E8        30.37R
WALDEN         NOT AVBL
$$

COZ006>008-011-230300-
...WEST CENTRAL VALLEYS...

CITY           SKY/WX    TMP DP  RH WIND       PRES   REMARKS
GRAND JUNCTION FAIR      52  19  27 N7        30.38R
MONTROSE       FAIR      49  27  42 S7        30.43R
EAGLE          FAIR      50  24  36 NW5       30.42R
RIFLE          FAIR      49  29  46 VRB3      30.39R
DELTA          FAIR      55  22  27 CALM      30.39R
NUCLA          FAIR      50  19  29 E10       30.45S
$$

COZ017>023-064>068-230300-
...SOUTHWEST COLORADO...

CITY           SKY/WX    TMP DP  RH WIND       PRES   REMARKS
DURANGO        FAIR      53  20  27 W5        30.40R
CORTEZ         FAIR      46  22  38 NE8       30.43R
PAGOSA SPRINGS FAIR      42  18  38 CALM      30.46S
TELLURIDE      FAIR      44  18  35 SW3       30.58R
WOLF CREEK PAS FAIR      32  18  55 S13       30.67S WCI  22
$$

COZ009-010-012-014-032>034-037-058>063-230300-
...CENTRAL COLORADO...

CITY           SKY/WX    TMP DP  RH WIND       PRES   REMARKS
ASPEN          FAIR      37  30  75 S8        30.47R
BUENA VISTA    FAIR      50  18  28 NW9       30.37R
COPPER MTN     FAIR      34  23  64 NW6       30.57S WCI  29
BERTHOUD PASS  FAIR      30  21  69 NW40G58   30.51S WCI  13
COTTONWOOD PAS FAIR      50  19  29 W16G39    30.43R
GUNNISON       FAIR      44  20  38 N6        30.46R
KREMMLING      MOCLDY    52  23  32 CALM      30.41R
LEADVILLE      FAIR      39  16  39 N14G21    30.48R
MONARCH PASS   FAIR      32  14  47 W45G55    30.65R WCI  15
SALIDA         FAIR      56  16  20 W23G31    30.41R
SUNLIGHT       FAIR      32  19  59 SW16G24   30.59R WCI  21
WILKERSON PASS FAIR      41  18  38 NW14G35   30.48F
$$

COZ069>075-230300-
...SAN LUIS VALLEY/SANGRE DE CRISTO MOUNTAINS...

CITY           SKY/WX    TMP DP  RH WIND       PRES   REMARKS
ALAMOSA        FAIR      46  18  32 CALM      30.38S
DEL NORTE      FAIR      43  18  36 W10       30.41S
LA VETA PASS   FAIR      43  18  36 S24G40    30.57S
SAGUACHE       FAIR      41  21  45 N5        30.43R
$$

COZ035-036-038>040-230300-
...NORTHERN COLORADO FRONT RANGE...

CITY           SKY/WX    TMP DP  RH WIND       PRES   REMARKS
DENVER INTL AP MOCLDY    60  23  24 VRB3      30.12S
DMNS CITY PARK   N/A     64  21  19 NW7       30.13S
AURORA         MOCLDY    60  23  24 NW3       30.15R
FRONT RANGE AP MOCLDY    55  27  33 W5        30.15R
ERIE MUNI ARPT FAIR      59  24  25 SW3       30.16S
BOULDER MUN AP FAIR      63  27  25 NE3       30.11S
CENTENNIAL     MOCLDY    59  19  21 SE6       30.16R
BROOMFIELD     NOT AVBL
FORT COLLINS   FAIR      54  31  41 VRB3      30.09F
LONGMONT       FAIR      67  25  20 W21G29    30.11S
$$

COZ041-046-047-076>085-087-088-230300-
...PIKES PEAK/PALMER DIVIDE AND SOUTHERN FOOTHILLS...

CITY           SKY/WX    TMP DP  RH WIND       PRES   REMARKS
COLO. SPRINGS  MOCLDY    54  27  35 VRB6      30.21R
A. F. ACADEMY  FAIR      54  24  31 N6        30.21R
SCHRIEVER AFB  FAIR      55  24  30 N3        30.20R
CHEYENNE MTN   FAIR      56  23  27 S6        30.18R
ELLICOTT         N/A    N/A N/A N/A CALM      30.19R
FALCON         FAIR      51  22  32 N6        30.24R
FORT CARSON    FAIR      56  26  32 W5        30.17R
LIMON          FAIR      41  28  60 SW3       30.15R
MONUMENT HILL  FAIR      45  23  42 S6        30.25R
CANON CITY     FAIR      61  27  27 N3        30.17R
WALSENBURG     NOT AVBL
TRINIDAD       FAIR      52  31  44 W9        30.18R
$$

COZ042>045-048>051-090-091-230300-
...NORTHEAST COLORADO...

CITY           SKY/WX    TMP DP  RH WIND       PRES   REMARKS
GREELEY ARPT   FAIR      55  30  38 SE3       30.09S
AKRON          FAIR      49  25  39 SW7       30.08R
BURLINGTON     FAIR      50  25  37 SW9       30.08S
WRAY           NOT AVBL
YUMA           FAIR      48  27  43 SW6       30.06S
STERLING       FAIR      50  30  46 W7        30.04S
HOLYOKE        FAIR      54  32  43 W5        30.04S
FORT MORGAN    FAIR      56  23  27 CALM      30.09S
$$

COZ086-089-092>099-230300-
...SOUTHEAST COLORADO...

CITY           SKY/WX    TMP DP  RH WIND       PRES   REMARKS
PUEBLO         FAIR      60  26  27 NE6       30.10R
LA JUNTA       FAIR      61  27  27 SE5       30.09R
LAMAR          FAIR      51  27  39 S7        30.05S
SPRINGFIELD      N/A     52  30  43 SW9       30.11S
$$




USA.gov is the U.S. government's official web portal to all federal, state and local government web resources and services.